When you browse on this site, cookies collect data to enhance your experience and personalize the content and advertising you see.
Visit our Privacy Policy to learn more. By continuing to use the site, you agree to this use of cookies and data.

Meteo pe oră la Dziebedow

Astăzi, 19 Septembrie, Sâmbătă

Timp Temperatura Precipitaţii Vânt Presiune Umiditate
00:00 +10°C° 0 mm 0 m/s 756 mmHg 60%
01:00 +10°C° 0 mm 0 m/s 756 mmHg 62%
02:00 +10°C° 0 mm 0 m/s 756 mmHg 63%
03:00 +9°C° 0 mm 0 m/s 756 mmHg 64%
04:00 +9°C° 0 mm 0 m/s 755 mmHg 65%
05:00 +10°C° 0 mm 0 m/s 755 mmHg 65%
06:00 +11°C° 0 mm 1 m/s 755 mmHg 64%
07:00 +12°C° 0 mm 1 m/s 755 mmHg 63%
08:00 +14°C° 0 mm 1 m/s 755 mmHg 57%
09:00 +15°C° 0 mm 1 m/s 755 mmHg 51%
10:00 +18°C° 0 mm 1 m/s 755 mmHg 45%
11:00 +19°C° 0 mm 1 m/s 755 mmHg 42%
12:00 +20°C° 0 mm 1 m/s 754 mmHg 38%
13:00 +21°C° 0 mm 1 m/s 754 mmHg 35%
14:00 +21°C° 0 mm 1 m/s 754 mmHg 36%
15:00 +20°C° 0 mm 2 m/s 753 mmHg 38%
16:00 +20°C° 0 mm 2 m/s 753 mmHg 39%
17:00 +18°C° 0 mm 2 m/s 753 mmHg 42%
18:00 +17°C° 0 mm 2 m/s 753 mmHg 44%
19:00 +15°C° 0 mm 2 m/s 752 mmHg 47%
20:00 +15°C° 0 mm 2 m/s 753 mmHg 48%
21:00 +14°C° 0 mm 2 m/s 753 mmHg 50%
22:00 +13°C° 0 mm 3 m/s 753 mmHg 51%
23:00 +12°C° 0 mm 3 m/s 753 mmHg 52%

Mâine, 20 Septembrie, Duminică

Timp Temperatura Precipitaţii Vânt Presiune Umiditate
00:00 +13°C° 0 mm 2 m/s 753 mmHg 53%
01:00 +13°C° 0 mm 2 m/s 752 mmHg 55%
02:00 +12°C° 0 mm 2 m/s 752 mmHg 55%
03:00 +11°C° 0 mm 3 m/s 752 mmHg 56%
04:00 +11°C° 0 mm 3 m/s 752 mmHg 56%
05:00 +11°C° 0 mm 3 m/s 752 mmHg 57%
06:00 +12°C° 0 mm 3 m/s 752 mmHg 57%
07:00 +12°C° 0 mm 3 m/s 752 mmHg 57%
08:00 +13°C° 0 mm 3 m/s 752 mmHg 54%
09:00 +16°C° 0 mm 3 m/s 752 mmHg 51%
10:00 +18°C° 0 mm 4 m/s 752 mmHg 48%
11:00 +19°C° 0 mm 4 m/s 752 mmHg 46%
12:00 +20°C° 0 mm 4 m/s 751 mmHg 43%
13:00 +21°C° 0 mm 4 m/s 751 mmHg 41%
14:00 +20°C° 0 mm 4 m/s 751 mmHg 43%
15:00 +20°C° 0 mm 3 m/s 750 mmHg 45%
16:00 +20°C° 0 mm 3 m/s 750 mmHg 48%
17:00 +19°C° 0 mm 3 m/s 750 mmHg 51%
18:00 +17°C° 0 mm 3 m/s 750 mmHg 55%
19:00 +16°C° 0 mm 3 m/s 750 mmHg 59%
20:00 +14°C° 0 mm 3 m/s 750 mmHg 61%
21:00 +14°C° 0 mm 3 m/s 751 mmHg 63%
22:00 +13°C° 0 mm 3 m/s 751 mmHg 65%
23:00 +13°C° 0 mm 3 m/s 750 mmHg 69%

Poimâine, 21 Septembrie, Luni

Timp Temperatura Precipitaţii Vânt Presiune Umiditate
00:00 +13°C° 0 mm 2 m/s 750 mmHg 73%
01:00 +13°C° 0 mm 2 m/s 750 mmHg 76%
02:00 +13°C° 0 mm 2 m/s 750 mmHg 79%
03:00 +12°C° 0 mm 2 m/s 750 mmHg 82%
04:00 +12°C° 0 mm 1 m/s 750 mmHg 85%
05:00 +13°C° 0 mm 1 m/s 750 mmHg 82%
06:00 +13°C° 0 mm 1 m/s 750 mmHg 80%
07:00 +14°C° 0 mm 1 m/s 750 mmHg 78%
08:00 +16°C° 0 mm 1 m/s 750 mmHg 70%
09:00 +19°C° 0 mm 1 m/s 750 mmHg 61%
10:00 +20°C° 0 mm 2 m/s 750 mmHg 52%
11:00 +23°C° 0 mm 2 m/s 749 mmHg 48%
12:00 +24°C° 0 mm 2 m/s 749 mmHg 43%
13:00 +25°C° 0 mm 2 m/s 749 mmHg 38%
14:00 +25°C° 0 mm 1 m/s 749 mmHg 39%
15:00 +25°C° 0 mm 1 m/s 749 mmHg 40%
16:00 +26°C° 0 mm 1 m/s 748 mmHg 41%
17:00 +24°C° 0 mm 1 m/s 748 mmHg 44%
18:00 +21°C° 0 mm 2 m/s 748 mmHg 48%
19:00 +19°C° 0 mm 2 m/s 748 mmHg 51%
20:00 +19°C° 0 mm 2 m/s 748 mmHg 53%
21:00 +18°C° 0 mm 2 m/s 748 mmHg 54%
22:00 +18°C° 0 mm 2 m/s 748 mmHg 55%
23:00 +17°C° 0 mm 2 m/s 748 mmHg 56%

22 Septembrie, Marţi

Timp Temperatura Precipitaţii Vânt Presiune Umiditate
00:00 +17°C° 0 mm 3 m/s 748 mmHg 57%
01:00 +16°C° 0 mm 3 m/s 747 mmHg 58%
02:00 +16°C° 0 mm 3 m/s 747 mmHg 59%
03:00 +16°C° 0 mm 3 m/s 747 mmHg 60%
04:00 +16°C° 0 mm 3 m/s 747 mmHg 61%
05:00 +16°C° 0 mm 3 m/s 747 mmHg 60%
06:00 +17°C° 0 mm 3 m/s 747 mmHg 60%
07:00 +17°C° 0 mm 3 m/s 747 mmHg 59%
08:00 +19°C° 0 mm 4 m/s 747 mmHg 52%
09:00 +22°C° 0 mm 5 m/s 747 mmHg 46%
10:00 +24°C° 0 mm 6 m/s 747 mmHg 39%
11:00 +26°C° 0 mm 6 m/s 746 mmHg 37%
12:00 +27°C° 0 mm 7 m/s 746 mmHg 35%
13:00 +28°C° 0 mm 7 m/s 745 mmHg 33%
14:00 +27°C° 0 mm 6 m/s 745 mmHg 36%
15:00 +27°C° 0 mm 5 m/s 744 mmHg 39%
16:00 +26°C° 0 mm 4 m/s 744 mmHg 42%
17:00 +25°C° 0 mm 4 m/s 744 mmHg 45%
18:00 +22°C° 0 mm 4 m/s 744 mmHg 48%
19:00 +21°C° 0 mm 4 m/s 744 mmHg 51%
20:00 +20°C° 0 mm 4 m/s 743 mmHg 51%
21:00 +20°C° 0 mm 4 m/s 743 mmHg 51%
22:00 +19°C° 0 mm 4 m/s 743 mmHg 51%
23:00 +19°C° 0 mm 4 m/s 743 mmHg 52%

23 Septembrie, Miercuri

Timp Temperatura Precipitaţii Vânt Presiune Umiditate
00:00 +19°C° 0 mm 4 m/s 742 mmHg 52%
01:00 +18°C° 0 mm 4 m/s 742 mmHg 53%
02:00 +18°C° 0 mm 4 m/s 742 mmHg 53%
03:00 +18°C° 0 mm 4 m/s 742 mmHg 53%
04:00 +18°C° 0 mm 4 m/s 741 mmHg 53%
05:00 +18°C° 0 mm 4 m/s 741 mmHg 54%
06:00 +18°C° 0 mm 4 m/s 741 mmHg 54%
07:00 +19°C° 0 mm 4 m/s 741 mmHg 54%
08:00 +20°C° 0 mm 5 m/s 741 mmHg 54%
09:00 +21°C° 0 mm 5 m/s 741 mmHg 54%
10:00 +22°C° 0 mm 5 m/s 740 mmHg 54%
11:00 +23°C° 0 mm 5 m/s 740 mmHg 53%
12:00 +25°C° 0 mm 5 m/s 740 mmHg 52%
13:00 +26°C° 0 mm 4 m/s 740 mmHg 51%
14:00 +26°C° 0 mm 4 m/s 740 mmHg 53%
15:00 +25°C° 0 mm 3 m/s 740 mmHg 55%
16:00 +25°C° 0 mm 3 m/s 739 mmHg 56%
17:00 +23°C° 0 mm 2 m/s 739 mmHg 61%
18:00 +21°C° 0 mm 2 m/s 740 mmHg 65%
19:00 +20°C° 0 mm 2 m/s 740 mmHg 70%
20:00 +20°C° 0 mm 2 m/s 740 mmHg 71%
21:00 +19°C° 0 mm 2 m/s 740 mmHg 71%
22:00 +19°C° 0 mm 2 m/s 740 mmHg 72%
23:00 +19°C° 0 mm 2 m/s 740 mmHg 74%

24 Septembrie, Joi

Timp Temperatura Precipitaţii Vânt Presiune Umiditate
00:00 +18°C° 0 mm 2 m/s 740 mmHg 76%
01:00 +18°C° 0 mm 2 m/s 740 mmHg 78%
02:00 +18°C° 0 mm 2 m/s 740 mmHg 81%
03:00 +17°C° 0 mm 2 m/s 740 mmHg 83%
04:00 +17°C° 0 mm 2 m/s 740 mmHg 85%
05:00 +17°C° 0 mm 2 m/s 740 mmHg 84%
06:00 +17°C° 0 mm 2 m/s 740 mmHg 82%
07:00 +17°C° 0 mm 3 m/s 741 mmHg 80%
08:00 +18°C° 0 mm 2 m/s 741 mmHg 76%
09:00 +19°C° 0 mm 2 m/s 741 mmHg 71%
10:00 +20°C° 0 mm 2 m/s 741 mmHg 66%
11:00 +21°C° 0 mm 2 m/s 741 mmHg 65%
12:00 +21°C° 0 mm 2 m/s 741 mmHg 64%
13:00 +23°C° 0 mm 2 m/s 741 mmHg 63%
14:00 +21°C° 0 mm 2 m/s 741 mmHg 64%
15:00 +22°C° 0 mm 1 m/s 740 mmHg 65%
16:00 +22°C° 0 mm 1 m/s 740 mmHg 65%
17:00 +20°C° 0 mm 2 m/s 740 mmHg 69%
18:00 +19°C° 0 mm 2 m/s 740 mmHg 73%
19:00 +18°C° 0 mm 2 m/s 740 mmHg 77%
20:00 +18°C° 0 mm 2 m/s 740 mmHg 79%
21:00 +17°C° 0 mm 2 m/s 740 mmHg 82%
22:00 +17°C° 0 mm 3 m/s 740 mmHg 85%
23:00 +17°C° 0 mm 3 m/s 739 mmHg 86%
Arată mai mult